When you browse on this site, cookies collect data to enhance your experience and personalize the content and advertising you see.
Visit our Privacy Policy to learn more. By continuing to use the site, you agree to this use of cookies and data.

Tiempo cada hora Korçe

Hoy, 15 Julio, Miércoles

Tiempo Temperatura Precipitaciones Viento Presión Humedad
00:00 +14°C° 0 mm 1 mps 666 mmHg 89%
01:00 +14°C° 0 mm 1 mps 666 mmHg 89%
02:00 +13°C° 0 mm 1 mps 666 mmHg 90%
03:00 +13°C° 0 mm 1 mps 666 mmHg 90%
04:00 +13°C° 0 mm 1 mps 666 mmHg 91%
05:00 +15°C° 0 mm 1 mps 666 mmHg 86%
06:00 +15°C° 0 mm 0 mps 667 mmHg 81%
07:00 +17°C° 0 mm 0 mps 668 mmHg 76%
08:00 +21°C° 0 mm 1 mps 668 mmHg 67%
09:00 +22°C° 0 mm 1 mps 669 mmHg 59%
10:00 +24°C° 0 mm 1 mps 669 mmHg 50%
11:00 +24°C° 0 mm 2 mps 669 mmHg 48%
12:00 +25°C° 0 mm 2 mps 669 mmHg 47%
13:00 +25°C° 0 mm 2 mps 669 mmHg 45%
14:00 +24°C° 0.1 mm 2 mps 669 mmHg 47%
15:00 +24°C° 0.1 mm 2 mps 668 mmHg 50%
16:00 +22°C° 0.1 mm 3 mps 668 mmHg 53%
17:00 +21°C° 0.1 mm 2 mps 668 mmHg 60%
18:00 +19°C° 0.1 mm 2 mps 667 mmHg 67%
19:00 +18°C° 0.1 mm 1 mps 667 mmHg 74%
20:00 +16°C° 0 mm 1 mps 667 mmHg 75%
21:00 +16°C° 0 mm 1 mps 667 mmHg 76%
22:00 +14°C° 0 mm 0 mps 667 mmHg 77%
23:00 +14°C° 0 mm 0 mps 666 mmHg 78%

Mañana, 16 Julio, Jueves

Tiempo Temperatura Precipitaciones Viento Presión Humedad
00:00 +13°C° 0 mm 0 mps 666 mmHg 79%
01:00 +13°C° 0 mm 0 mps 666 mmHg 81%
02:00 +13°C° 0 mm 0 mps 666 mmHg 82%
03:00 +12°C° 0 mm 0 mps 665 mmHg 82%
04:00 +12°C° 0 mm 0 mps 665 mmHg 83%
05:00 +14°C° 0 mm 0 mps 666 mmHg 77%
06:00 +16°C° 0 mm 0 mps 666 mmHg 70%
07:00 +17°C° 0 mm 0 mps 667 mmHg 64%
08:00 +21°C° 0 mm 1 mps 667 mmHg 59%
09:00 +22°C° 0 mm 1 mps 667 mmHg 54%
10:00 +23°C° 0 mm 2 mps 668 mmHg 48%
11:00 +24°C° 0.2 mm 2 mps 667 mmHg 48%
12:00 +24°C° 0.2 mm 3 mps 667 mmHg 48%
13:00 +24°C° 0.2 mm 3 mps 667 mmHg 48%
14:00 +24°C° 0.2 mm 3 mps 667 mmHg 50%
15:00 +24°C° 0.2 mm 3 mps 666 mmHg 52%
16:00 +22°C° 0.2 mm 3 mps 666 mmHg 53%
17:00 +21°C° 0.1 mm 2 mps 666 mmHg 61%
18:00 +19°C° 0.1 mm 2 mps 665 mmHg 68%
19:00 +18°C° 0.1 mm 1 mps 665 mmHg 75%
20:00 +16°C° 0 mm 1 mps 665 mmHg 77%
21:00 +16°C° 0 mm 1 mps 665 mmHg 79%
22:00 +15°C° 0 mm 1 mps 665 mmHg 82%
23:00 +15°C° 0 mm 1 mps 665 mmHg 81%

Pasado mañana, 17 Julio, Viernes

Tiempo Temperatura Precipitaciones Viento Presión Humedad
00:00 +14°C° 0 mm 1 mps 664 mmHg 81%
01:00 +14°C° 0 mm 1 mps 664 mmHg 81%
02:00 +14°C° 0 mm 1 mps 664 mmHg 81%
03:00 +14°C° 0 mm 1 mps 664 mmHg 81%
04:00 +14°C° 0 mm 1 mps 664 mmHg 81%
05:00 +16°C° 0 mm 1 mps 664 mmHg 75%
06:00 +19°C° 0 mm 1 mps 665 mmHg 69%
07:00 +20°C° 0 mm 1 mps 665 mmHg 64%
08:00 +22°C° 0 mm 1 mps 666 mmHg 58%
09:00 +24°C° 0 mm 1 mps 666 mmHg 52%
10:00 +25°C° 0 mm 1 mps 666 mmHg 46%
11:00 +25°C° 0.1 mm 2 mps 666 mmHg 45%
12:00 +26°C° 0.1 mm 2 mps 666 mmHg 44%
13:00 +26°C° 0.1 mm 2 mps 666 mmHg 43%
14:00 +25°C° 0.1 mm 2 mps 666 mmHg 46%
15:00 +25°C° 0.1 mm 2 mps 665 mmHg 49%
16:00 +24°C° 0.1 mm 2 mps 665 mmHg 52%
17:00 +23°C° 0.1 mm 2 mps 665 mmHg 58%
18:00 +21°C° 0.1 mm 1 mps 664 mmHg 63%
19:00 +19°C° 0.1 mm 1 mps 664 mmHg 68%
20:00 +18°C° 0 mm 1 mps 664 mmHg 70%
21:00 +18°C° 0 mm 1 mps 664 mmHg 72%
22:00 +15°C° 0 mm 0 mps 664 mmHg 74%
23:00 +15°C° 0 mm 1 mps 664 mmHg 75%

18 Julio, Sábado

Tiempo Temperatura Precipitaciones Viento Presión Humedad
00:00 +15°C° 0 mm 1 mps 664 mmHg 77%
01:00 +15°C° 0 mm 1 mps 664 mmHg 78%
02:00 +15°C° 0 mm 1 mps 663 mmHg 80%
03:00 +14°C° 0 mm 1 mps 663 mmHg 81%
04:00 +14°C° 0 mm 1 mps 663 mmHg 82%
05:00 +16°C° 0 mm 1 mps 664 mmHg 77%
06:00 +19°C° 0 mm 1 mps 664 mmHg 72%
07:00 +21°C° 0 mm 1 mps 665 mmHg 67%
08:00 +22°C° 0.1 mm 1 mps 665 mmHg 60%
09:00 +23°C° 0.1 mm 1 mps 665 mmHg 54%
10:00 +25°C° 0.1 mm 2 mps 666 mmHg 47%
11:00 +25°C° 0.2 mm 2 mps 665 mmHg 46%
12:00 +25°C° 0.2 mm 2 mps 665 mmHg 45%
13:00 +26°C° 0.2 mm 2 mps 665 mmHg 44%
14:00 +25°C° 0.4 mm 2 mps 665 mmHg 49%
15:00 +24°C° 0.4 mm 2 mps 665 mmHg 54%
16:00 +23°C° 0.4 mm 2 mps 664 mmHg 59%
17:00 +20°C° 0.6 mm 2 mps 664 mmHg 65%
18:00 +19°C° 0.6 mm 2 mps 664 mmHg 72%
19:00 +18°C° 0.6 mm 1 mps 664 mmHg 78%
20:00 +16°C° 0 mm 1 mps 664 mmHg 80%
21:00 +15°C° 0 mm 1 mps 664 mmHg 82%
22:00 +15°C° 0 mm 1 mps 664 mmHg 84%
23:00 +14°C° 0 mm 1 mps 664 mmHg 85%

19 Julio, Domingo

Tiempo Temperatura Precipitaciones Viento Presión Humedad
00:00 +14°C° 0 mm 1 mps 664 mmHg 86%
01:00 +14°C° 0 mm 1 mps 664 mmHg 87%
02:00 +14°C° 0 mm 1 mps 664 mmHg 87%
03:00 +13°C° 0 mm 1 mps 664 mmHg 87%
04:00 +13°C° 0 mm 1 mps 664 mmHg 88%
05:00 +15°C° 0 mm 1 mps 664 mmHg 82%
06:00 +18°C° 0 mm 1 mps 665 mmHg 76%
07:00 +19°C° 0 mm 1 mps 665 mmHg 70%
08:00 +21°C° 0 mm 1 mps 666 mmHg 63%
09:00 +23°C° 0 mm 1 mps 667 mmHg 55%
10:00 +25°C° 0 mm 1 mps 667 mmHg 48%
11:00 +25°C° 0 mm 2 mps 667 mmHg 46%
12:00 +26°C° 0 mm 2 mps 667 mmHg 45%
13:00 +26°C° 0 mm 2 mps 667 mmHg 43%
14:00 +26°C° 0 mm 2 mps 667 mmHg 45%
15:00 +26°C° 0 mm 2 mps 667 mmHg 48%
16:00 +25°C° 0 mm 3 mps 667 mmHg 50%
17:00 +23°C° 0 mm 2 mps 666 mmHg 60%
18:00 +20°C° 0 mm 2 mps 666 mmHg 69%
19:00 +18°C° 0 mm 2 mps 666 mmHg 79%
20:00 +18°C° 0 mm 1 mps 666 mmHg 81%
21:00 +18°C° 0 mm 1 mps 666 mmHg 84%
22:00 +16°C° 0 mm 1 mps 666 mmHg 86%
23:00 +16°C° 0 mm 1 mps 666 mmHg 86%

20 Julio, Lunes

Tiempo Temperatura Precipitaciones Viento Presión Humedad
00:00 +15°C° 0 mm 1 mps 665 mmHg 87%
01:00 +15°C° 0 mm 1 mps 665 mmHg 87%
02:00 +15°C° 0 mm 1 mps 665 mmHg 87%
03:00 +15°C° 0 mm 1 mps 665 mmHg 87%
04:00 +15°C° 0 mm 1 mps 665 mmHg 88%
05:00 +16°C° 0 mm 1 mps 666 mmHg 81%
06:00 +19°C° 0 mm 1 mps 666 mmHg 75%
07:00 +21°C° 0 mm 1 mps 667 mmHg 69%
08:00 +23°C° 0 mm 1 mps 667 mmHg 63%
09:00 +24°C° 0 mm 1 mps 668 mmHg 56%
10:00 +26°C° 0 mm 1 mps 668 mmHg 49%
11:00 +27°C° 0 mm 2 mps 668 mmHg 45%
12:00 +27°C° 0 mm 2 mps 668 mmHg 42%
13:00 +28°C° 0 mm 3 mps 668 mmHg 38%
14:00 +27°C° 0 mm 3 mps 668 mmHg 40%
15:00 +27°C° 0 mm 3 mps 668 mmHg 42%
16:00 +27°C° 0 mm 3 mps 667 mmHg 44%
17:00 +24°C° 0 mm 3 mps 667 mmHg 53%
18:00 +21°C° 0 mm 2 mps 666 mmHg 61%
19:00 +19°C° 0 mm 2 mps 666 mmHg 69%
20:00 +18°C° 0 mm 2 mps 666 mmHg 72%
21:00 +18°C° 0 mm 1 mps 666 mmHg 74%
22:00 +18°C° 0 mm 1 mps 666 mmHg 77%
23:00 +16°C° 0 mm 1 mps 666 mmHg 77%
Mostrar más